Погода в Суходольске

Россия / Ростовская область     47°00′14″N   39°41′59″E
темп.,
°C
ветер,
м/с
пор.,
м/с
влажн.,
%
обл.,
%
осадки,
мм/ч
давл.,
гПа
погр.,
м
14 августа, вс
вс1400:00+27всв7133643 0.0 1009318
03:00+25всв512380 0.0 1008259
06:00+25в514330 0.0 1010387
09:00+31в712222 0.0 10091003
12:00+37в811142 0.0 10073085
15:00+39в810125 0.0 10053828
18:00+38в69155 0.0 10043303
21:00+30в410234 0.0 1004170
15 августа, пн
пн1500:00+31в8152134 0.0 1004568
03:00+29в6132322 0.0 1006517
06:00+26в614305 0.0 1006389
09:00+33вюв9141854 0.0 10061348
12:00+38вюв912125 0.0 10052748
15:00+40вюв810123 0.0 10043575
18:00+39юв781588 0.0 10033227
21:00+36вюв101515100 0.0 10041048
16 августа, вт
вт1600:00+32вюв9162011 0.0 1005739
03:00+29в6132791 0.0 1007441
06:00+27вюв4931100 0.0 1009346
09:00+28вюв5631100 0.0 1010462
12:00+32юв5631100 0.2 10101609
15:00+34ююв35267 0.9 10091355
18:00+33ююз44300 0.3 1008778
21:00+26зсз49620 0.3 1009203
17 августа, ср
ср1700:00+25з37630 0.0 1009158
03:00+24зсз37668 0.0 1009155
06:00+24зюз36641 0.0 1009127
09:00+31з33345 0.0 1009811
12:00+35зсз44292 0.0 10082185
15:00+36сз552813 0.0 10072294
18:00+32зсз663575 0.1 1007484
21:00+26зсз485459 0.4 1007139
18 августа, чт
чт1800:00+25сз365920 0.4 1006132
03:00+23вюв1282100 5.0 100750
06:00+23юз3475100 0.1 100690
09:00+28з3349100 0.1 1007541
12:00+34ююз4529100 0.0 10061515
15:00+36зюз4527100 0.0 10052347
18:00+29юв3447100 2.6 1006214
21:00+24юв61173100 2.6 1008510